PHGAS EGBB-EGNX

Flight info

Callsign PHGAS
Flight time N/A
Altitude 2000
Route DCT
Aircraft C172/L-SFG/C

Departure

Time 2026-04-29 12:07
Airport Birmingham Airport (EGBB)

Arrival

Time N/A
Airport East Midlands Airport (EGNX)
Time Latitude Longitude Altitude Speed Heading
2026-04-29 11:45 52.45062 -1.75142 323 ft 0 kts 186°
2026-04-29 11:59 52.45057 -1.75164 323 ft 10 kts 315°
2026-04-29 11:59 52.45092 -1.75162 322 ft 0 kts
2026-04-29 12:02 52.45112 -1.75156 322 ft 10 kts 12°
2026-04-29 12:02 52.45148 -1.75071 322 ft 10 kts 53°
2026-04-29 12:02 52.45182 -1.74981 322 ft 9 kts 60°
2026-04-29 12:02 52.45157 -1.74896 323 ft 10 kts 146°
2026-04-29 12:03 52.45090 -1.74820 323 ft 8 kts 145°
2026-04-29 12:03 52.45061 -1.74791 324 ft 3 kts 150°
2026-04-29 12:03 52.45014 -1.74740 324 ft 4 kts 148°
2026-04-29 12:03 52.45013 -1.74739 324 ft 0 kts 148°
2026-04-29 12:05 52.45008 -1.74734 324 ft 0 kts 148°
2026-04-29 12:05 52.44998 -1.74721 324 ft 11 kts 137°
2026-04-29 12:05 52.44977 -1.74539 325 ft 12 kts 105°
2026-04-29 12:05 52.44966 -1.74451 325 ft 9 kts 86°
2026-04-29 12:06 52.45062 -1.74443 325 ft 32 kts 326°
2026-04-29 12:06 52.45378 -1.74798 320 ft 72 kts 324°
2026-04-29 12:06 52.45815 -1.75254 390 ft 82 kts 328°
2026-04-29 12:06 52.46343 -1.75866 574 ft 92 kts 329°
2026-04-29 12:07 52.46869 -1.76464 797 ft 93 kts 354°
2026-04-29 12:07 52.47484 -1.76607 1053 ft 85 kts 10°
2026-04-29 12:07 52.48074 -1.76673 1274 ft 87 kts 13°
2026-04-29 12:07 52.48707 -1.76750 1451 ft 91 kts 12°
2026-04-29 12:08 52.49283 -1.76839 1781 ft 86 kts
2026-04-29 12:08 52.49973 -1.77094 1786 ft 110 kts
2026-04-29 12:08 52.50720 -1.77103 1868 ft 98 kts 27°
2026-04-29 12:08 52.51303 -1.76808 1979 ft 86 kts 34°
2026-04-29 12:09 52.51899 -1.76405 1949 ft 101 kts 36°
2026-04-29 12:09 52.52518 -1.75952 1925 ft 94 kts 36°
2026-04-29 12:09 52.53106 -1.75538 1876 ft 91 kts 37°
2026-04-29 12:09 52.53675 -1.75138 1846 ft 87 kts 36°
2026-04-29 12:10 52.53991 -1.74913 1819 ft 92 kts 38°
2026-04-29 12:10 52.54622 -1.74474 1893 ft 102 kts 34°
2026-04-29 12:10 52.55279 -1.74082 2107 ft 98 kts 33°
2026-04-29 12:10 52.55922 -1.73729 2273 ft 99 kts 32°
2026-04-29 12:11 52.56572 -1.73388 2372 ft 102 kts 31°
2026-04-29 12:11 52.56724 -1.73308 2389 ft 103 kts 30°
2026-04-29 12:11 52.56873 -1.73229 2423 ft 102 kts 31°
2026-04-29 12:11 52.57569 -1.72941 2261 ft 105 kts 28°
2026-04-29 12:12 52.58235 -1.72690 2096 ft 95 kts 27°
2026-04-29 12:12 52.58935 -1.72446 2115 ft 106 kts 27°
2026-04-29 12:12 52.59663 -1.72183 2137 ft 108 kts 26°
2026-04-29 12:12 52.60401 -1.71929 2056 ft 103 kts 27°
2026-04-29 12:13 52.61091 -1.71707 2024 ft 100 kts 27°
2026-04-29 12:13 52.61759 -1.71378 1900 ft 101 kts 32°
2026-04-29 12:13 52.62433 -1.71009 1820 ft 102 kts 32°
2026-04-29 12:13 52.63098 -1.70652 1811 ft 96 kts 32°
2026-04-29 12:14 52.63685 -1.70360 1936 ft 80 kts 34°
2026-04-29 12:14 52.63877 -1.70261 1964 ft 78 kts 33°
2026-04-29 12:14 52.64320 -1.69991 1845 ft 90 kts 39°
2026-04-29 12:14 52.64929 -1.69504 1885 ft 98 kts 39°
2026-04-29 12:15 52.65474 -1.69093 1910 ft 79 kts 38°
2026-04-29 12:15 52.65981 -1.68743 1762 ft 74 kts 39°
2026-04-29 12:15 52.66409 -1.68470 1732 ft 65 kts 40°
2026-04-29 12:15 52.66866 -1.68189 1669 ft 78 kts 38°
2026-04-29 12:16 52.67388 -1.67828 1646 ft 81 kts 40°
2026-04-29 12:16 52.67890 -1.67423 1631 ft 83 kts 38°
2026-04-29 12:16 52.68391 -1.67040 1698 ft 79 kts 38°
2026-04-29 12:16 52.68902 -1.66688 1733 ft 79 kts 40°
2026-04-29 12:17 52.69401 -1.66333 1768 ft 80 kts 39°
2026-04-29 12:17 52.69943 -1.65950 1712 ft 87 kts 39°
2026-04-29 12:17 52.70477 -1.65506 1718 ft 85 kts 43°
2026-04-29 12:17 52.70991 -1.65059 1754 ft 83 kts 41°
2026-04-29 12:18 52.71469 -1.64628 1876 ft 72 kts 45°
2026-04-29 12:18 52.71804 -1.64305 1990 ft 65 kts 48°
2026-04-29 12:18 52.72184 -1.63901 2021 ft 70 kts 49°
2026-04-29 12:18 52.72580 -1.63391 1993 ft 77 kts 53°
2026-04-29 12:19 52.72991 -1.62787 1958 ft 81 kts 53°
2026-04-29 12:19 52.73369 -1.62098 1938 ft 80 kts 60°
2026-04-29 12:19 52.73497 -1.61856 2065 ft 81 kts 59°
2026-04-29 12:19 52.73696 -1.61495 2054 ft 81 kts 59°
2026-04-29 12:20 52.74027 -1.60814 2147 ft 73 kts 55°
2026-04-29 12:20 52.74336 -1.60184 2183 ft 71 kts 59°
2026-04-29 12:20 52.74706 -1.59619 2195 ft 74 kts 41°
2026-04-29 12:20 52.75256 -1.59320 2164 ft 87 kts 30°
2026-04-29 12:21 52.75832 -1.59109 2226 ft 81 kts 32°
2026-04-29 12:21 52.76384 -1.58884 2279 ft 87 kts 31°
2026-04-29 12:21 52.76969 -1.58679 2157 ft 85 kts 29°
2026-04-29 12:21 52.77532 -1.58492 2027 ft 83 kts 29°